Time,TemperatureF,DewpointF,PressureIn,WindDirection,WindDirectionDegrees,WindSpeedMPH,WindSpeedGustMPH,Humidity,HourlyPrecipIn,Conditions,Clouds,dailyrainin,SoftwareType,DateUTC
2013-06-30 00:01:00,60.0,-23.0,29.57,South,180,2.0,4.0,0,0.00,,,0.00,Rainwise IP-100,2013-06-30 04:01:00,
2013-06-30 00:06:00,59.9,-23.0,29.57,SSE,157,5.0,6.0,0,0.00,,,0.00,Rainwise IP-100,2013-06-30 04:06:00,
2013-06-30 00:11:00,59.9,-23.0,29.57,SSE,157,4.0,7.0,0,0.00,,,0.00,Rainwise IP-100,2013-06-30 04:11:00,
2013-06-30 00:16:00,59.9,-23.0,29.57,SSE,157,7.0,9.0,0,0.00,,,0.00,Rainwise IP-100,2013-06-30 04:16:00,
2013-06-30 00:21:00,59.9,-23.0,29.57,SW,225,3.0,7.0,0,0.00,,,0.00,Rainwise IP-100,2013-06-30 04:21:00,
2013-06-30 00:26:00,59.9,-23.0,29.57,SE,135,1.0,5.0,0,0.00,,,0.00,Rainwise IP-100,2013-06-30 04:26:00,
2013-06-30 00:31:00,59.9,-23.0,29.57,SSE,157,2.0,6.0,0,0.00,,,0.00,Rainwise IP-100,2013-06-30 04:31:00,
2013-06-30 00:36:00,59.9,-23.0,29.57,SSW,202,7.0,7.0,0,0.00,,,0.00,Rainwise IP-100,2013-06-30 04:36:00,
2013-06-30 00:41:00,59.8,-23.0,29.57,SE,135,5.0,7.0,0,0.00,,,0.00,Rainwise IP-100,2013-06-30 04:41:00,
2013-06-30 00:46:00,59.8,-23.0,29.57,SE,135,3.0,6.0,0,0.00,,,0.00,Rainwise IP-100,2013-06-30 04:46:00,
2013-06-30 00:51:00,59.8,-23.0,29.57,SSW,202,1.0,9.0,0,0.00,,,0.00,Rainwise IP-100,2013-06-30 04:51:00,
2013-06-30 00:56:00,59.7,-23.0,29.57,SW,225,3.0,4.0,0,0.00,,,0.00,Rainwise IP-100,2013-06-30 04:56:00,
2013-06-30 01:01:00,59.7,-23.0,29.57,SSW,202,3.0,6.0,0,0.00,,,0.00,Rainwise IP-100,2013-06-30 05:01:00,
2013-06-30 01:06:00,59.7,-23.0,29.57,SW,225,1.0,4.0,0,0.00,,,0.00,Rainwise IP-100,2013-06-30 05:06:00,
2013-06-30 01:11:00,59.7,-23.0,29.58,South,180,4.0,6.0,0,0.00,,,0.00,Rainwise IP-100,2013-06-30 05:11:00,
2013-06-30 01:16:00,59.8,-23.0,29.57,SE,135,1.0,7.0,0,0.00,,,0.00,Rainwise IP-100,2013-06-30 05:16:00,
2013-06-30 01:21:00,59.7,-23.0,29.57,South,180,1.0,3.0,0,0.00,,,0.00,Rainwise IP-100,2013-06-30 05:21:00,
2013-06-30 01:26:00,59.8,-23.0,29.57,SW,225,2.0,7.0,0,0.00,,,0.00,Rainwise IP-100,2013-06-30 05:26:00,
2013-06-30 01:31:00,59.7,-23.0,29.58,SSE,157,1.0,3.0,0,0.00,,,0.00,Rainwise IP-100,2013-06-30 05:31:00,
2013-06-30 01:36:00,59.7,-23.0,29.57,SSW,202,4.0,4.0,0,0.00,,,0.00,Rainwise IP-100,2013-06-30 05:36:00,
2013-06-30 01:41:00,59.7,-23.0,29.57,South,180,4.0,4.0,0,0.00,,,0.00,Rainwise IP-100,2013-06-30 05:41:00,
2013-06-30 01:46:00,59.6,-23.0,29.57,South,180,5.0,5.0,0,0.00,,,0.00,Rainwise IP-100,2013-06-30 05:46:00,
2013-06-30 01:51:00,59.5,-23.0,29.57,ESE,112,4.0,4.0,0,0.00,,,0.00,Rainwise IP-100,2013-06-30 05:51:00,
2013-06-30 01:54:00,59.5,-23.0,29.57,ESE,112,4.0,4.0,0,0.00,,,0.00,Rainwise IP-100,2013-06-30 05:54:00,
2013-06-30 01:59:00,59.7,-23.0,29.57,South,180,2.0,6.0,0,0.00,,,0.00,Rainwise IP-100,2013-06-30 05:59:00,
2013-06-30 02:04:00,59.6,-23.0,29.57,South,180,2.0,2.0,0,0.00,,,0.00,Rainwise IP-100,2013-06-30 06:04:00,
2013-06-30 02:09:00,59.8,-23.0,29.57,SW,225,1.0,2.0,0,0.00,,,0.00,Rainwise IP-100,2013-06-30 06:09:00,
2013-06-30 02:14:00,59.7,-23.0,29.57,SSE,157,1.0,6.0,0,0.00,,,0.00,Rainwise IP-100,2013-06-30 06:14:00,
2013-06-30 02:19:00,59.7,-23.0,29.57,ESE,112,6.0,6.0,0,0.00,,,0.00,Rainwise IP-100,2013-06-30 06:19:00,
2013-06-30 02:21:00,59.6,-23.0,29.57,ESE,112,1.0,6.0,0,0.00,,,0.00,Rainwise IP-100,2013-06-30 06:21:00,
2013-06-30 02:26:00,59.7,-23.0,29.57,South,180,2.0,4.0,0,0.00,,,0.00,Rainwise IP-100,2013-06-30 06:26:00,
2013-06-30 02:31:00,59.7,-23.0,29.57,SE,135,2.0,6.0,0,0.00,,,0.00,Rainwise IP-100,2013-06-30 06:31:00,
2013-06-30 02:36:00,59.7,-23.0,29.56,SSE,157,2.0,6.0,0,0.00,,,0.00,Rainwise IP-100,2013-06-30 06:36:00,
2013-06-30 02:41:00,59.7,-23.0,29.56,SSE,157,3.0,4.0,0,0.00,,,0.00,Rainwise IP-100,2013-06-30 06:41:00,
2013-06-30 02:46:00,59.7,-23.0,29.56,SSW,202,2.0,3.0,0,0.00,,,0.00,Rainwise IP-100,2013-06-30 06:46:00,
2013-06-30 02:51:00,59.7,-23.0,29.57,WSW,247,2.0,5.0,0,0.00,,,0.00,Rainwise IP-100,2013-06-30 06:51:00,
2013-06-30 02:56:00,59.7,-23.0,29.57,SW,225,2.0,4.0,0,0.00,,,0.00,Rainwise IP-100,2013-06-30 06:56:00,
2013-06-30 03:01:00,59.7,-23.0,29.57,SSE,157,1.0,4.0,0,0.00,,,0.00,Rainwise IP-100,2013-06-30 07:01:00,
2013-06-30 03:06:00,59.7,-23.0,29.57,WSW,247,0.0,6.0,0,0.00,,,0.00,Rainwise IP-100,2013-06-30 07:06:00,
2013-06-30 03:11:00,59.7,-23.0,29.57,SSW,202,1.0,7.0,0,0.00,,,0.00,Rainwise IP-100,2013-06-30 07:11:00,
2013-06-30 03:16:00,59.6,-23.0,29.56,SSE,157,2.0,7.0,0,0.00,,,0.00,Rainwise IP-100,2013-06-30 07:16:00,
2013-06-30 03:21:00,59.7,-23.0,29.57,South,180,4.0,6.0,0,0.00,,,0.00,Rainwise IP-100,2013-06-30 07:21:00,
2013-06-30 03:26:00,59.9,-23.0,29.57,ESE,112,4.0,6.0,0,0.00,,,0.00,Rainwise IP-100,2013-06-30 07:26:00,
2013-06-30 03:31:00,60.0,-23.0,29.57,SW,225,2.0,6.0,0,0.00,,,0.00,Rainwise IP-100,2013-06-30 07:31:00,
2013-06-30 03:36:00,60.1,-23.0,29.57,SE,135,1.0,6.0,0,0.00,,,0.00,Rainwise IP-100,2013-06-30 07:36:00,
2013-06-30 03:41:00,60.2,-23.0,29.57,South,180,2.0,6.0,0,0.00,,,0.00,Rainwise IP-100,2013-06-30 07:41:00,
2013-06-30 03:46:00,60.2,-23.0,29.57,SE,135,2.0,7.0,0,0.00,,,0.00,Rainwise IP-100,2013-06-30 07:46:00,
2013-06-30 03:51:00,60.2,-23.0,29.57,SSW,202,2.0,4.0,0,0.00,,,0.00,Rainwise IP-100,2013-06-30 07:51:00,
2013-06-30 03:56:00,60.1,-23.0,29.58,South,180,1.0,7.0,0,0.00,,,0.00,Rainwise IP-100,2013-06-30 07:56:00,
2013-06-30 04:01:00,60.2,-23.0,29.58,SSW,202,2.0,5.0,0,0.00,,,0.00,Rainwise IP-100,2013-06-30 08:01:00,
2013-06-30 04:06:00,60.2,-23.0,29.58,SSE,157,7.0,7.0,0,0.00,,,0.00,Rainwise IP-100,2013-06-30 08:06:00,
2013-06-30 04:11:00,60.3,-23.0,29.58,SW,225,2.0,7.0,0,0.00,,,0.00,Rainwise IP-100,2013-06-30 08:11:00,
2013-06-30 04:16:00,60.3,-23.0,29.58,SSE,157,2.0,2.0,0,0.00,,,0.00,Rainwise IP-100,2013-06-30 08:16:00,
2013-06-30 04:21:00,60.4,-23.0,29.58,SSE,157,2.0,6.0,0,0.00,,,0.00,Rainwise IP-100,2013-06-30 08:21:00,
2013-06-30 04:26:00,60.4,-23.0,29.58,SSW,202,1.0,6.0,0,0.00,,,0.00,Rainwise IP-100,2013-06-30 08:26:00,
2013-06-30 04:31:00,60.3,-23.0,29.58,SSW,202,1.0,6.0,0,0.00,,,0.00,Rainwise IP-100,2013-06-30 08:31:00,
2013-06-30 04:36:00,60.1,-23.0,29.59,SSE,157,4.0,6.0,0,0.00,,,0.00,Rainwise IP-100,2013-06-30 08:36:00,
2013-06-30 04:41:00,59.9,-23.0,29.59,SE,135,2.0,7.0,0,0.00,,,0.00,Rainwise IP-100,2013-06-30 08:41:00,
2013-06-30 04:46:00,59.9,-23.0,29.59,ESE,112,2.0,4.0,0,0.00,,,0.00,Rainwise IP-100,2013-06-30 08:46:00,
2013-06-30 04:51:00,59.9,-23.0,29.59,SSE,157,4.0,6.0,0,0.00,,,0.00,Rainwise IP-100,2013-06-30 08:51:00,
2013-06-30 04:56:00,59.9,-23.0,29.59,SSE,157,2.0,6.0,0,0.00,,,0.00,Rainwise IP-100,2013-06-30 08:56:00,
2013-06-30 05:01:00,59.9,-23.0,29.59,SE,135,2.0,4.0,0,0.00,,,0.00,Rainwise IP-100,2013-06-30 09:01:00,
2013-06-30 05:06:00,59.9,-23.0,29.59,SW,225,0.0,7.0,0,0.00,,,0.00,Rainwise IP-100,2013-06-30 09:06:00,
2013-06-30 05:11:00,59.9,-23.0,29.60,SE,135,3.0,3.0,0,0.00,,,0.00,Rainwise IP-100,2013-06-30 09:11:00,
2013-06-30 05:16:00,60.1,-23.0,29.59,South,180,3.0,5.0,0,0.00,,,0.00,Rainwise IP-100,2013-06-30 09:16:00,
2013-06-30 05:21:00,60.2,-23.0,29.60,SSE,157,2.0,4.0,0,0.00,,,0.00,Rainwise IP-100,2013-06-30 09:21:00,
2013-06-30 05:26:00,60.3,-23.0,29.60,South,180,3.0,7.0,0,0.00,,,0.00,Rainwise IP-100,2013-06-30 09:26:00,
2013-06-30 05:31:00,60.4,-23.0,29.60,South,180,6.0,6.0,0,0.00,,,0.00,Rainwise IP-100,2013-06-30 09:31:00,
2013-06-30 05:36:00,60.5,-23.0,29.60,SW,225,2.0,8.0,0,0.00,,,0.00,Rainwise IP-100,2013-06-30 09:36:00,
2013-06-30 05:41:00,60.5,-23.0,29.60,SSW,202,3.0,8.0,0,0.00,,,0.00,Rainwise IP-100,2013-06-30 09:41:00,
2013-06-30 05:46:00,60.7,-23.0,29.60,ESE,112,2.0,7.0,0,0.00,,,0.00,Rainwise IP-100,2013-06-30 09:46:00,
2013-06-30 05:53:00,60.9,-23.0,29.60,South,180,2.0,4.0,0,0.00,,,0.00,Rainwise IP-100,2013-06-30 09:53:00,
2013-06-30 05:58:00,60.9,-23.0,29.61,South,180,2.0,9.0,0,0.00,,,0.00,Rainwise IP-100,2013-06-30 09:58:00,
2013-06-30 06:03:00,60.9,-23.0,29.61,SSW,202,1.0,7.0,0,0.00,,,0.00,Rainwise IP-100,2013-06-30 10:03:00,
2013-06-30 06:08:00,61.0,-23.0,29.61,WSW,247,1.0,4.0,0,0.00,,,0.00,Rainwise IP-100,2013-06-30 10:08:00,
2013-06-30 06:13:00,60.9,-23.0,29.61,SSE,157,6.0,6.0,0,0.00,,,0.00,Rainwise IP-100,2013-06-30 10:13:00,
2013-06-30 06:18:00,61.0,-23.0,29.61,SW,225,6.0,7.0,0,0.00,,,0.00,Rainwise IP-100,2013-06-30 10:18:00,
2013-06-30 06:23:00,61.1,-23.0,29.62,SW,225,5.0,7.0,0,0.00,,,0.00,Rainwise IP-100,2013-06-30 10:23:00,
2013-06-30 06:28:00,61.1,-23.0,29.62,SSW,202,2.0,5.0,0,0.00,,,0.00,Rainwise IP-100,2013-06-30 10:28:00,
2013-06-30 06:33:00,61.3,-23.0,29.62,SSE,157,2.0,4.0,0,0.00,,,0.00,Rainwise IP-100,2013-06-30 10:33:00,
2013-06-30 06:38:00,61.3,-23.0,29.62,South,180,4.0,7.0,0,0.00,,,0.00,Rainwise IP-100,2013-06-30 10:38:00,
2013-06-30 06:43:00,61.4,-23.0,29.62,SSE,157,0.0,4.0,0,0.00,,,0.00,Rainwise IP-100,2013-06-30 10:43:00,
2013-06-30 06:48:00,61.5,-23.0,29.62,South,180,2.0,8.0,0,0.00,,,0.00,Rainwise IP-100,2013-06-30 10:48:00,
2013-06-30 06:53:00,61.5,-23.0,29.63,South,180,1.0,8.0,0,0.00,,,0.00,Rainwise IP-100,2013-06-30 10:53:00,
2013-06-30 06:58:00,61.4,-23.0,29.62,SE,135,2.0,7.0,0,0.00,,,0.00,Rainwise IP-100,2013-06-30 10:58:00,
2013-06-30 07:03:00,61.3,-23.0,29.62,ESE,112,1.0,5.0,0,0.00,,,0.00,Rainwise IP-100,2013-06-30 11:03:00,
2013-06-30 07:08:00,61.4,-23.0,29.62,South,180,1.0,3.0,0,0.00,,,0.00,Rainwise IP-100,2013-06-30 11:08:00,
2013-06-30 07:14:00,61.5,-23.0,29.63,SW,225,1.0,2.0,0,0.00,,,0.00,Rainwise IP-100,2013-06-30 11:14:00,
2013-06-30 07:19:00,61.4,-23.0,29.63,WSW,247,4.0,7.0,0,0.00,,,0.00,Rainwise IP-100,2013-06-30 11:19:00,
2013-06-30 07:24:00,61.4,-23.0,29.64,ESE,112,3.0,6.0,0,0.00,,,0.00,Rainwise IP-100,2013-06-30 11:24:00,
2013-06-30 07:27:00,61.3,-23.0,29.64,SSW,202,2.0,3.0,0,0.00,,,0.00,Rainwise IP-100,2013-06-30 11:27:00,
2013-06-30 07:32:00,61.2,-23.0,29.64,SE,135,2.0,2.0,0,0.00,,,0.00,Rainwise IP-100,2013-06-30 11:32:00,
2013-06-30 07:39:00,61.3,-23.0,29.64,SW,225,4.0,0.0,0,0.00,,,0.00,Rainwise IP-100,2013-06-30 11:39:00,
2013-06-30 07:44:00,61.2,-23.0,29.64,ESE,112,2.0,4.0,0,0.00,,,0.00,Rainwise IP-100,2013-06-30 11:44:00,
2013-06-30 07:50:00,60.9,-23.0,29.65,SE,135,1.0,4.0,0,0.00,,,0.00,Rainwise IP-100,2013-06-30 11:50:00,
2013-06-30 07:55:00,60.9,-23.0,29.65,SSE,157,1.0,5.0,0,0.00,,,0.00,Rainwise IP-100,2013-06-30 11:55:00,
2013-06-30 08:00:00,61.1,-23.0,29.66,SSW,202,4.0,5.0,0,0.00,,,0.00,Rainwise IP-100,2013-06-30 12:00:00,
2013-06-30 08:05:00,60.9,-23.0,29.66,SE,135,5.0,5.0,0,0.00,,,0.00,Rainwise IP-100,2013-06-30 12:05:00,
2013-06-30 08:10:00,60.9,-23.0,29.66,SW,225,2.0,5.0,0,0.00,,,0.00,Rainwise IP-100,2013-06-30 12:10:00,
2013-06-30 08:15:00,61.1,-23.0,29.66,SSW,202,2.0,3.0,0,0.00,,,0.00,Rainwise IP-100,2013-06-30 12:15:00,
2013-06-30 08:20:00,61.1,-23.0,29.66,SSE,157,0.0,4.0,0,0.00,,,0.00,Rainwise IP-100,2013-06-30 12:20:00,
2013-06-30 08:25:00,61.1,-23.0,29.66,SE,135,4.0,9.0,0,0.00,,,0.00,Rainwise IP-100,2013-06-30 12:25:00,
2013-06-30 08:30:00,61.3,-23.0,29.66,ESE,112,2.0,7.0,0,0.00,,,0.00,Rainwise IP-100,2013-06-30 12:30:00,
2013-06-30 08:35:00,61.4,-23.0,29.66,SE,135,2.0,4.0,0,0.00,,,0.00,Rainwise IP-100,2013-06-30 12:35:00,
2013-06-30 08:40:00,61.3,-23.0,29.66,SW,225,2.0,10.0,0,0.00,,,0.00,Rainwise IP-100,2013-06-30 12:40:00,
2013-06-30 08:45:00,61.5,-23.0,29.67,South,180,1.0,4.0,0,0.00,,,0.00,Rainwise IP-100,2013-06-30 12:45:00,
2013-06-30 08:50:00,61.6,-23.0,29.67,SSW,202,2.0,7.0,0,0.00,,,0.00,Rainwise IP-100,2013-06-30 12:50:00,
2013-06-30 08:55:00,61.5,-23.0,29.67,South,180,2.0,5.0,0,0.00,,,0.00,Rainwise IP-100,2013-06-30 12:55:00,
2013-06-30 09:00:00,61.6,-23.0,29.67,SSE,157,2.0,7.0,0,0.00,,,0.00,Rainwise IP-100,2013-06-30 13:00:00,
2013-06-30 09:05:00,61.7,-23.0,29.67,ESE,112,3.0,6.0,0,0.00,,,0.00,Rainwise IP-100,2013-06-30 13:05:00,
2013-06-30 09:10:00,61.7,-23.0,29.68,SE,135,1.0,7.0,0,0.00,,,0.00,Rainwise IP-100,2013-06-30 13:10:00,
2013-06-30 09:15:00,61.6,-23.0,29.67,SE,135,1.0,8.0,0,0.00,,,0.00,Rainwise IP-100,2013-06-30 13:15:00,
2013-06-30 09:20:00,61.7,-23.0,29.68,West,270,4.0,9.0,0,0.00,,,0.00,Rainwise IP-100,2013-06-30 13:20:00,
2013-06-30 09:25:00,61.9,-23.0,29.68,WSW,247,4.0,7.0,0,0.00,,,0.00,Rainwise IP-100,2013-06-30 13:25:00,
2013-06-30 09:30:00,62.0,-23.0,29.68,WSW,247,1.0,6.0,0,0.00,,,0.00,Rainwise IP-100,2013-06-30 13:30:00,
2013-06-30 09:35:00,62.0,-23.0,29.68,South,180,5.0,6.0,0,0.00,,,0.00,Rainwise IP-100,2013-06-30 13:35:00,
2013-06-30 09:40:00,62.0,-23.0,29.68,SSE,157,1.0,10.0,0,0.00,,,0.00,Rainwise IP-100,2013-06-30 13:40:00,
2013-06-30 09:45:00,62.0,-23.0,29.69,SSW,202,2.0,8.0,0,0.00,,,0.00,Rainwise IP-100,2013-06-30 13:45:00,
2013-06-30 09:50:00,61.9,-23.0,29.69,SSE,157,1.0,10.0,0,0.00,,,0.00,Rainwise IP-100,2013-06-30 13:50:00,
2013-06-30 09:55:00,62.1,-23.0,29.69,SE,135,4.0,7.0,0,0.00,,,0.00,Rainwise IP-100,2013-06-30 13:55:00,
2013-06-30 10:00:00,62.1,-23.0,29.68,SSE,157,5.0,6.0,0,0.00,,,0.00,Rainwise IP-100,2013-06-30 14:00:00,
2013-06-30 10:05:00,62.3,-23.0,29.68,South,180,2.0,7.0,0,0.00,,,0.00,Rainwise IP-100,2013-06-30 14:05:00,
2013-06-30 10:10:00,62.4,-23.0,29.69,ESE,112,0.0,10.0,0,0.00,,,0.00,Rainwise IP-100,2013-06-30 14:10:00,
2013-06-30 10:15:00,62.4,-23.0,29.69,South,180,2.0,7.0,0,0.00,,,0.00,Rainwise IP-100,2013-06-30 14:15:00,
2013-06-30 10:20:00,62.6,-23.0,29.69,SE,135,1.0,5.0,0,0.00,,,0.00,Rainwise IP-100,2013-06-30 14:20:00,
2013-06-30 10:25:00,62.4,-23.0,29.69,SSE,157,2.0,9.0,0,0.00,,,0.00,Rainwise IP-100,2013-06-30 14:25:00,
2013-06-30 10:30:00,62.7,-23.0,29.69,ESE,112,6.0,6.0,0,0.00,,,0.00,Rainwise IP-100,2013-06-30 14:30:00,
2013-06-30 10:35:00,62.5,-23.0,29.69,ESE,112,2.0,7.0,0,0.00,,,0.00,Rainwise IP-100,2013-06-30 14:35:00,
2013-06-30 10:40:00,62.9,-23.0,29.69,SW,225,1.0,5.0,0,0.00,,,0.00,Rainwise IP-100,2013-06-30 14:40:00,
2013-06-30 10:45:00,62.8,-23.0,29.69,WSW,247,3.0,7.0,0,0.00,,,0.00,Rainwise IP-100,2013-06-30 14:45:00,
2013-06-30 10:50:00,63.1,-23.0,29.70,South,180,1.0,7.0,0,0.00,,,0.00,Rainwise IP-100,2013-06-30 14:50:00,
2013-06-30 10:55:00,62.9,-23.0,29.70,South,180,1.0,4.0,0,0.00,,,0.00,Rainwise IP-100,2013-06-30 14:55:00,
2013-06-30 11:00:00,63.2,-23.0,29.69,ESE,112,2.0,7.0,0,0.00,,,0.00,Rainwise IP-100,2013-06-30 15:00:00,
2013-06-30 11:05:00,63.6,-23.0,29.70,South,180,4.0,6.0,0,0.00,,,0.00,Rainwise IP-100,2013-06-30 15:05:00,
2013-06-30 11:10:00,63.3,-23.0,29.70,SSE,157,5.0,8.0,0,0.00,,,0.00,Rainwise IP-100,2013-06-30 15:10:00,
2013-06-30 11:15:00,63.5,-23.0,29.70,SSW,202,2.0,6.0,0,0.00,,,0.00,Rainwise IP-100,2013-06-30 15:15:00,
2013-06-30 11:20:00,63.6,-23.0,29.70,SSE,157,1.0,5.0,0,0.00,,,0.00,Rainwise IP-100,2013-06-30 15:20:00,
2013-06-30 11:25:00,63.5,-23.0,29.70,East,90,2.0,7.0,0,0.00,,,0.00,Rainwise IP-100,2013-06-30 15:25:00,
2013-06-30 11:30:00,63.2,-23.0,29.70,SE,135,1.0,9.0,0,0.00,,,0.00,Rainwise IP-100,2013-06-30 15:30:00,
2013-06-30 11:35:00,63.4,-23.0,29.70,East,90,1.0,10.0,0,0.00,,,0.00,Rainwise IP-100,2013-06-30 15:35:00,
2013-06-30 11:40:00,63.4,-23.0,29.70,SW,225,2.0,10.0,0,0.00,,,0.00,Rainwise IP-100,2013-06-30 15:40:00,
2013-06-30 11:45:00,63.8,-23.0,29.70,SE,135,4.0,6.0,0,0.00,,,0.00,Rainwise IP-100,2013-06-30 15:45:00,
2013-06-30 11:50:00,64.2,-23.0,29.70,ESE,112,2.0,7.0,0,0.00,,,0.00,Rainwise IP-100,2013-06-30 15:50:00,
2013-06-30 11:55:00,64.2,-23.0,29.71,SE,135,1.0,9.0,0,0.00,,,0.00,Rainwise IP-100,2013-06-30 15:55:00,
2013-06-30 12:00:00,64.3,-23.0,29.71,SSE,157,2.0,8.0,0,0.00,,,0.00,Rainwise IP-100,2013-06-30 16:00:00,
2013-06-30 12:05:00,64.3,-23.0,29.71,SSE,157,3.0,8.0,0,0.00,,,0.00,Rainwise IP-100,2013-06-30 16:05:00,
2013-06-30 12:10:00,64.7,-23.0,29.71,SE,135,4.0,6.0,0,0.00,,,0.00,Rainwise IP-100,2013-06-30 16:10:00,
2013-06-30 12:15:00,64.7,-23.0,29.71,South,180,2.0,7.0,0,0.00,,,0.00,Rainwise IP-100,2013-06-30 16:15:00,
2013-06-30 12:20:00,64.8,-23.0,29.72,ESE,112,4.0,7.0,0,0.00,,,0.00,Rainwise IP-100,2013-06-30 16:20:00,
2013-06-30 12:25:00,64.6,-23.0,29.72,South,180,5.0,9.0,0,0.00,,,0.00,Rainwise IP-100,2013-06-30 16:25:00,
2013-06-30 12:30:00,64.7,-23.0,29.72,SE,135,5.0,8.0,0,0.00,,,0.00,Rainwise IP-100,2013-06-30 16:30:00,
2013-06-30 12:35:00,64.7,-23.0,29.72,WSW,247,1.0,9.0,0,0.00,,,0.00,Rainwise IP-100,2013-06-30 16:35:00,
2013-06-30 12:40:00,64.8,-23.0,29.72,SSW,202,3.0,5.0,0,0.00,,,0.00,Rainwise IP-100,2013-06-30 16:40:00,
2013-06-30 12:45:00,64.8,-23.0,29.72,South,180,4.0,7.0,0,0.00,,,0.00,Rainwise IP-100,2013-06-30 16:45:00,
2013-06-30 12:50:00,64.6,-23.0,29.72,ESE,112,4.0,9.0,0,0.00,,,0.00,Rainwise IP-100,2013-06-30 16:50:00,
2013-06-30 12:55:00,64.6,-23.0,29.72,SSW,202,7.0,9.0,0,0.00,,,0.00,Rainwise IP-100,2013-06-30 16:55:00,
2013-06-30 13:00:00,64.6,-23.0,29.72,WSW,247,2.0,10.0,0,0.00,,,0.00,Rainwise IP-100,2013-06-30 17:00:00,
2013-06-30 13:05:00,64.7,-23.0,29.72,SSW,202,5.0,9.0,0,0.00,,,0.00,Rainwise IP-100,2013-06-30 17:05:00,
2013-06-30 13:10:00,64.8,-23.0,29.73,SSE,157,3.0,9.0,0,0.00,,,0.00,Rainwise IP-100,2013-06-30 17:10:00,
2013-06-30 13:15:00,65.1,-23.0,29.72,ESE,112,5.0,8.0,0,0.00,,,0.00,Rainwise IP-100,2013-06-30 17:15:00,
2013-06-30 13:20:00,64.6,-23.0,29.72,SE,135,2.0,8.0,0,0.00,,,0.00,Rainwise IP-100,2013-06-30 17:20:00,
2013-06-30 13:25:00,64.9,-23.0,29.72,ESE,112,3.0,7.0,0,0.00,,,0.00,Rainwise IP-100,2013-06-30 17:25:00,
2013-06-30 13:30:00,64.6,-23.0,29.72,ESE,112,2.0,9.0,0,0.00,,,0.00,Rainwise IP-100,2013-06-30 17:30:00,
2013-06-30 13:35:00,64.9,-23.0,29.73,SE,135,3.0,8.0,0,0.00,,,0.00,Rainwise IP-100,2013-06-30 17:35:00,
2013-06-30 13:40:00,64.9,-23.0,29.72,South,180,2.0,7.0,0,0.00,,,0.00,Rainwise IP-100,2013-06-30 17:40:00,
2013-06-30 13:45:00,64.9,-23.0,29.72,SSE,157,2.0,7.0,0,0.00,,,0.00,Rainwise IP-100,2013-06-30 17:45:00,
2013-06-30 13:50:00,64.3,-23.0,29.73,SSE,157,4.0,7.0,0,0.00,,,0.00,Rainwise IP-100,2013-06-30 17:50:00,
2013-06-30 13:55:00,64.2,-23.0,29.73,ESE,112,2.0,4.0,0,0.00,,,0.00,Rainwise IP-100,2013-06-30 17:55:00,
2013-06-30 14:00:00,63.9,-23.0,29.73,SSW,202,2.0,7.0,0,0.00,,,0.00,Rainwise IP-100,2013-06-30 18:00:00,
2013-06-30 14:05:00,64.5,-23.0,29.73,SSE,157,2.0,5.0,0,0.00,,,0.00,Rainwise IP-100,2013-06-30 18:05:00,
2013-06-30 14:10:00,64.9,-23.0,29.73,SSW,202,1.0,3.0,0,0.00,,,0.00,Rainwise IP-100,2013-06-30 18:10:00,
2013-06-30 14:15:00,65.2,-23.0,29.73,West,270,4.0,6.0,0,0.00,,,0.00,Rainwise IP-100,2013-06-30 18:15:00,
2013-06-30 14:20:00,65.1,-23.0,29.73,WSW,247,2.0,5.0,0,0.00,,,0.00,Rainwise IP-100,2013-06-30 18:20:00,
2013-06-30 14:25:00,65.4,-23.0,29.73,WSW,247,0.0,6.0,0,0.00,,,0.00,Rainwise IP-100,2013-06-30 18:25:00,
2013-06-30 14:30:00,65.7,-23.0,29.73,SW,225,0.0,3.0,0,0.00,,,0.00,Rainwise IP-100,2013-06-30 18:30:00,
2013-06-30 14:35:00,65.7,-23.0,29.73,ESE,112,1.0,7.0,0,0.00,,,0.00,Rainwise IP-100,2013-06-30 18:35:00,
2013-06-30 14:40:00,65.9,-23.0,29.73,South,180,1.0,7.0,0,0.00,,,0.00,Rainwise IP-100,2013-06-30 18:40:00,
2013-06-30 14:45:00,65.9,-23.0,29.73,SSE,157,2.0,5.0,0,0.00,,,0.00,Rainwise IP-100,2013-06-30 18:45:00,
2013-06-30 14:50:00,66.1,-23.0,29.73,SSE,157,2.0,6.0,0,0.00,,,0.00,Rainwise IP-100,2013-06-30 18:50:00,
2013-06-30 14:55:00,65.9,-23.0,29.73,NW,315,1.0,7.0,0,0.00,,,0.00,Rainwise IP-100,2013-06-30 18:55:00,
2013-06-30 15:00:00,66.2,-23.0,29.73,SW,225,1.0,4.0,0,0.00,,,0.00,Rainwise IP-100,2013-06-30 19:00:00,
2013-06-30 15:05:00,66.3,-23.0,29.73,SE,135,2.0,4.0,0,0.00,,,0.00,Rainwise IP-100,2013-06-30 19:05:00,
2013-06-30 15:10:00,66.4,-23.0,29.73,ESE,112,3.0,5.0,0,0.00,,,0.00,Rainwise IP-100,2013-06-30 19:10:00,
2013-06-30 15:15:00,66.3,-23.0,29.74,WSW,247,1.0,6.0,0,0.00,,,0.00,Rainwise IP-100,2013-06-30 19:15:00,
2013-06-30 15:20:00,66.3,-23.0,29.74,South,180,0.0,6.0,0,0.00,,,0.00,Rainwise IP-100,2013-06-30 19:20:00,
2013-06-30 15:25:00,66.0,-23.0,29.74,WSW,247,2.0,5.0,0,0.00,,,0.00,Rainwise IP-100,2013-06-30 19:25:00,
2013-06-30 15:30:00,66.1,-23.0,29.74,SSW,202,1.0,6.0,0,0.00,,,0.00,Rainwise IP-100,2013-06-30 19:30:00,
2013-06-30 15:35:00,66.0,-23.0,29.74,South,180,1.0,4.0,0,0.00,,,0.00,Rainwise IP-100,2013-06-30 19:35:00,
2013-06-30 15:40:00,65.8,-23.0,29.74,SW,225,1.0,7.0,0,0.00,,,0.00,Rainwise IP-100,2013-06-30 19:40:00,
2013-06-30 15:45:00,65.7,-23.0,29.73,WSW,247,1.0,9.0,0,0.00,,,0.00,Rainwise IP-100,2013-06-30 19:45:00,
2013-06-30 15:50:00,65.7,-23.0,29.74,SW,225,2.0,4.0,0,0.00,,,0.00,Rainwise IP-100,2013-06-30 19:50:00,
2013-06-30 15:55:00,65.9,-23.0,29.74,SSW,202,1.0,4.0,0,0.00,,,0.00,Rainwise IP-100,2013-06-30 19:55:00,
2013-06-30 16:00:00,65.9,-23.0,29.74,SSW,202,4.0,7.0,0,0.00,,,0.00,Rainwise IP-100,2013-06-30 20:00:00,
2013-06-30 16:05:00,65.7,-23.0,29.74,South,180,1.0,7.0,0,0.00,,,0.00,Rainwise IP-100,2013-06-30 20:05:00,
2013-06-30 16:10:00,65.7,-23.0,29.74,SE,135,4.0,7.0,0,0.00,,,0.00,Rainwise IP-100,2013-06-30 20:10:00,
2013-06-30 16:15:00,65.5,-23.0,29.73,SE,135,2.0,7.0,0,0.00,,,0.00,Rainwise IP-100,2013-06-30 20:15:00,
2013-06-30 16:20:00,65.5,-23.0,29.74,WSW,247,1.0,6.0,0,0.00,,,0.00,Rainwise IP-100,2013-06-30 20:20:00,
2013-06-30 16:25:00,65.8,-23.0,29.74,SSW,202,6.0,7.0,0,0.00,,,0.00,Rainwise IP-100,2013-06-30 20:25:00,
2013-06-30 16:30:00,65.8,-23.0,29.74,SSE,157,0.0,9.0,0,0.00,,,0.00,Rainwise IP-100,2013-06-30 20:30:00,
2013-06-30 16:35:00,65.8,-23.0,29.74,SSE,157,2.0,9.0,0,0.00,,,0.00,Rainwise IP-100,2013-06-30 20:35:00,
2013-06-30 16:40:00,65.7,-23.0,29.74,SSE,157,2.0,6.0,0,0.00,,,0.00,Rainwise IP-100,2013-06-30 20:40:00,
2013-06-30 16:45:00,65.6,-23.0,29.74,West,270,4.0,8.0,0,0.00,,,0.00,Rainwise IP-100,2013-06-30 20:45:00,
2013-06-30 16:50:00,65.4,-23.0,29.74,SSE,157,2.0,11.0,0,0.00,,,0.00,Rainwise IP-100,2013-06-30 20:50:00,
2013-06-30 16:55:00,65.6,-23.0,29.74,ESE,112,2.0,8.0,0,0.00,,,0.00,Rainwise IP-100,2013-06-30 20:55:00,
2013-06-30 17:00:00,65.6,-23.0,29.74,SE,135,2.0,10.0,0,0.00,,,0.00,Rainwise IP-100,2013-06-30 21:00:00,
2013-06-30 17:05:00,65.5,-23.0,29.74,SSW,202,3.0,6.0,0,0.00,,,0.00,Rainwise IP-100,2013-06-30 21:05:00,
2013-06-30 17:10:00,65.4,-23.0,29.74,SSW,202,5.0,6.0,0,0.00,,,0.00,Rainwise IP-100,2013-06-30 21:10:00,
2013-06-30 17:15:00,65.1,-23.0,29.74,SSW,202,1.0,12.0,0,0.00,,,0.00,Rainwise IP-100,2013-06-30 21:15:00,
2013-06-30 17:20:00,64.9,-23.0,29.74,SSW,202,4.0,7.0,0,0.00,,,0.00,Rainwise IP-100,2013-06-30 21:20:00,
2013-06-30 17:25:00,64.9,-23.0,29.74,East,90,1.0,6.0,0,0.00,,,0.00,Rainwise IP-100,2013-06-30 21:25:00,
2013-06-30 17:30:00,64.8,-23.0,29.74,SSE,157,3.0,7.0,0,0.00,,,0.00,Rainwise IP-100,2013-06-30 21:30:00,
2013-06-30 17:35:00,64.6,-23.0,29.74,SW,225,6.0,8.0,0,0.00,,,0.00,Rainwise IP-100,2013-06-30 21:35:00,
2013-06-30 17:40:00,64.5,-23.0,29.74,SSW,202,6.0,9.0,0,0.00,,,0.00,Rainwise IP-100,2013-06-30 21:40:00,
2013-06-30 17:45:00,64.5,-23.0,29.74,SSE,157,1.0,6.0,0,0.00,,,0.00,Rainwise IP-100,2013-06-30 21:45:00,
2013-06-30 17:50:00,64.5,-23.0,29.74,South,180,2.0,7.0,0,0.00,,,0.00,Rainwise IP-100,2013-06-30 21:50:00,
2013-06-30 17:55:00,64.4,-23.0,29.74,SSW,202,2.0,6.0,0,0.00,,,0.00,Rainwise IP-100,2013-06-30 21:55:00,
2013-06-30 18:00:00,64.2,-23.0,29.74,SW,225,1.0,5.0,0,0.00,,,0.00,Rainwise IP-100,2013-06-30 22:00:00,
2013-06-30 18:05:00,63.9,-23.0,29.74,SSE,157,3.0,6.0,0,0.00,,,0.00,Rainwise IP-100,2013-06-30 22:05:00,
2013-06-30 18:10:00,63.6,-23.0,29.75,SSW,202,2.0,7.0,0,0.00,,,0.00,Rainwise IP-100,2013-06-30 22:10:00,
2013-06-30 18:15:00,63.3,-23.0,29.75,SSE,157,1.0,6.0,0,0.00,,,0.00,Rainwise IP-100,2013-06-30 22:15:00,
2013-06-30 18:20:00,63.1,-23.0,29.75,SSW,202,1.0,6.0,0,0.00,,,0.00,Rainwise IP-100,2013-06-30 22:20:00,
2013-06-30 18:25:00,62.9,-23.0,29.76,SSE,157,1.0,6.0,0,0.00,,,0.00,Rainwise IP-100,2013-06-30 22:25:00,
2013-06-30 18:30:00,62.8,-23.0,29.75,SSE,157,1.0,10.0,0,0.00,,,0.00,Rainwise IP-100,2013-06-30 22:30:00,
2013-06-30 18:35:00,62.8,-23.0,29.76,SSE,157,2.0,11.0,0,0.00,,,0.00,Rainwise IP-100,2013-06-30 22:35:00,
2013-06-30 18:40:00,62.6,-23.0,29.76,South,180,2.0,6.0,0,0.00,,,0.00,Rainwise IP-100,2013-06-30 22:40:00,
2013-06-30 18:45:00,62.5,-23.0,29.76,SSE,157,1.0,4.0,0,0.00,,,0.00,Rainwise IP-100,2013-06-30 22:45:00,
2013-06-30 18:50:00,62.4,-23.0,29.76,South,180,1.0,6.0,0,0.00,,,0.00,Rainwise IP-100,2013-06-30 22:50:00,
2013-06-30 18:55:00,62.3,-23.0,29.77,SSW,202,1.0,5.0,0,0.00,,,0.00,Rainwise IP-100,2013-06-30 22:55:00,
2013-06-30 19:00:00,62.2,-23.0,29.77,South,180,3.0,6.0,0,0.00,,,0.00,Rainwise IP-100,2013-06-30 23:00:00,
2013-06-30 19:05:00,61.9,-23.0,29.77,South,180,2.0,7.0,0,0.00,,,0.00,Rainwise IP-100,2013-06-30 23:05:00,
2013-06-30 19:10:00,61.6,-23.0,29.77,SE,135,4.0,8.0,0,0.00,,,0.00,Rainwise IP-100,2013-06-30 23:10:00,
2013-06-30 19:15:00,61.3,-23.0,29.77,SSE,157,4.0,8.0,0,0.00,,,0.00,Rainwise IP-100,2013-06-30 23:15:00,
2013-06-30 19:20:00,61.1,-23.0,29.76,East,90,1.0,9.0,0,0.00,,,0.00,Rainwise IP-100,2013-06-30 23:20:00,
2013-06-30 19:25:00,61.2,-23.0,29.77,South,180,4.0,8.0,0,0.00,,,0.00,Rainwise IP-100,2013-06-30 23:25:00,
2013-06-30 19:30:00,61.0,-23.0,29.77,SSE,157,2.0,5.0,0,0.00,,,0.00,Rainwise IP-100,2013-06-30 23:30:00,
2013-06-30 19:35:00,60.9,-23.0,29.76,SSE,157,6.0,6.0,0,0.00,,,0.00,Rainwise IP-100,2013-06-30 23:35:00,
2013-06-30 19:40:00,60.8,-23.0,29.76,SE,135,4.0,6.0,0,0.00,,,0.00,Rainwise IP-100,2013-06-30 23:40:00,
2013-06-30 19:45:00,60.8,-23.0,29.76,SE,135,2.0,8.0,0,0.00,,,0.00,Rainwise IP-100,2013-06-30 23:45:00,
2013-06-30 19:50:00,60.8,-23.0,29.76,ESE,112,2.0,5.0,0,0.00,,,0.00,Rainwise IP-100,2013-06-30 23:50:00,
2013-06-30 19:55:00,60.9,-23.0,29.76,SSE,157,4.0,5.0,0,0.00,,,0.00,Rainwise IP-100,2013-06-30 23:55:00,
2013-06-30 20:00:00,60.9,-23.0,29.76,SSE,157,1.0,6.0,0,0.00,,,0.00,Rainwise IP-100,2013-07-01 00:00:00,
2013-06-30 20:05:00,60.9,-23.0,29.76,South,180,1.0,6.0,0,0.00,,,0.00,Rainwise IP-100,2013-07-01 00:05:00,
2013-06-30 20:10:00,60.9,-23.0,29.76,SSE,157,5.0,6.0,0,0.00,,,0.00,Rainwise IP-100,2013-07-01 00:10:00,
2013-06-30 20:15:00,61.1,-23.0,29.76,SW,225,2.0,7.0,0,0.00,,,0.00,Rainwise IP-100,2013-07-01 00:15:00,
2013-06-30 20:20:00,61.1,-23.0,29.77,South,180,3.0,7.0,0,0.00,,,0.00,Rainwise IP-100,2013-07-01 00:20:00,
2013-06-30 20:25:00,61.1,-23.0,29.77,South,180,3.0,6.0,0,0.00,,,0.00,Rainwise IP-100,2013-07-01 00:25:00,
2013-06-30 20:30:00,61.1,-23.0,29.77,SSE,157,3.0,5.0,0,0.00,,,0.00,Rainwise IP-100,2013-07-01 00:30:00,
2013-06-30 20:35:00,60.9,-23.0,29.76,SE,135,4.0,6.0,0,0.00,,,0.00,Rainwise IP-100,2013-07-01 00:35:00,
2013-06-30 20:40:00,60.9,-23.0,29.77,SSW,202,2.0,7.0,0,0.00,,,0.00,Rainwise IP-100,2013-07-01 00:40:00,
2013-06-30 20:45:00,61.1,-23.0,29.77,ESE,112,1.0,4.0,0,0.00,,,0.00,Rainwise IP-100,2013-07-01 00:45:00,
2013-06-30 20:50:00,61.2,-23.0,29.77,SE,135,2.0,6.0,0,0.00,,,0.00,Rainwise IP-100,2013-07-01 00:50:00,
2013-06-30 20:55:00,61.2,-23.0,29.77,East,90,1.0,6.0,0,0.00,,,0.00,Rainwise IP-100,2013-07-01 00:55:00,
2013-06-30 21:00:00,61.3,-23.0,29.78,SE,135,1.0,5.0,0,0.00,,,0.00,Rainwise IP-100,2013-07-01 01:00:00,
2013-06-30 21:05:00,61.4,-23.0,29.78,South,180,4.0,6.0,0,0.00,,,0.00,Rainwise IP-100,2013-07-01 01:05:00,
2013-06-30 21:10:00,61.4,-23.0,29.78,SE,135,1.0,7.0,0,0.00,,,0.00,Rainwise IP-100,2013-07-01 01:10:00,
2013-06-30 21:15:00,61.4,-23.0,29.78,ESE,112,2.0,6.0,0,0.00,,,0.00,Rainwise IP-100,2013-07-01 01:15:00,
2013-06-30 21:20:00,61.4,-23.0,29.78,SSE,157,6.0,6.0,0,0.00,,,0.00,Rainwise IP-100,2013-07-01 01:20:00,
2013-06-30 21:25:00,61.3,-23.0,29.78,ESE,112,3.0,9.0,0,0.00,,,0.00,Rainwise IP-100,2013-07-01 01:25:00,
2013-06-30 21:30:00,61.2,-23.0,29.78,SE,135,5.0,8.0,0,0.00,,,0.00,Rainwise IP-100,2013-07-01 01:30:00,
2013-06-30 21:35:00,61.1,-23.0,29.78,SE,135,7.0,9.0,0,0.00,,,0.00,Rainwise IP-100,2013-07-01 01:35:00,
2013-06-30 21:40:00,60.9,-23.0,29.78,SSE,157,2.0,9.0,0,0.00,,,0.00,Rainwise IP-100,2013-07-01 01:40:00,
2013-06-30 21:45:00,60.9,-23.0,29.78,SSE,157,2.0,10.0,0,0.00,,,0.00,Rainwise IP-100,2013-07-01 01:45:00,
2013-06-30 21:50:00,61.1,-23.0,29.78,SSE,157,2.0,6.0,0,0.00,,,0.00,Rainwise IP-100,2013-07-01 01:50:00,
2013-06-30 21:55:00,61.3,-23.0,29.78,SE,135,7.0,8.0,0,0.00,,,0.00,Rainwise IP-100,2013-07-01 01:55:00,
2013-06-30 22:00:00,61.3,-23.0,29.78,SE,135,3.0,11.0,0,0.00,,,0.00,Rainwise IP-100,2013-07-01 02:00:00,
2013-06-30 22:05:00,61.3,-23.0,29.78,SSE,157,6.0,11.0,0,0.00,,,0.00,Rainwise IP-100,2013-07-01 02:05:00,
2013-06-30 22:10:00,61.3,-23.0,29.78,SSE,157,2.0,7.0,0,0.00,,,0.00,Rainwise IP-100,2013-07-01 02:10:00,
2013-06-30 22:15:00,61.3,-23.0,29.78,South,180,2.0,6.0,0,0.00,,,0.00,Rainwise IP-100,2013-07-01 02:15:00,
2013-06-30 22:20:00,61.3,-23.0,29.78,SSE,157,2.0,4.0,0,0.00,,,0.00,Rainwise IP-100,2013-07-01 02:20:00,
2013-06-30 22:25:00,61.2,-23.0,29.79,SE,135,2.0,5.0,0,0.00,,,0.00,Rainwise IP-100,2013-07-01 02:25:00,
2013-06-30 22:30:00,61.1,-23.0,29.79,SE,135,2.0,7.0,0,0.00,,,0.00,Rainwise IP-100,2013-07-01 02:30:00,
2013-06-30 22:35:00,60.9,-23.0,29.79,WSW,247,0.0,4.0,0,0.00,,,0.00,Rainwise IP-100,2013-07-01 02:35:00,
2013-06-30 22:40:00,61.0,-23.0,29.80,SSW,202,2.0,2.0,0,0.00,,,0.00,Rainwise IP-100,2013-07-01 02:40:00,
2013-06-30 22:45:00,61.1,-23.0,29.80,SSW,202,2.0,2.0,0,0.00,,,0.00,Rainwise IP-100,2013-07-01 02:45:00,
2013-06-30 22:50:00,61.0,-23.0,29.79,ESE,112,3.0,3.0,0,0.00,,,0.00,Rainwise IP-100,2013-07-01 02:50:00,
2013-06-30 22:55:00,60.9,-23.0,29.79,SE,135,2.0,6.0,0,0.00,,,0.00,Rainwise IP-100,2013-07-01 02:55:00,
2013-06-30 23:00:00,60.9,-23.0,29.79,South,180,2.0,6.0,0,0.00,,,0.00,Rainwise IP-100,2013-07-01 03:00:00,
2013-06-30 23:05:00,61.1,-23.0,29.79,South,180,4.0,4.0,0,0.00,,,0.00,Rainwise IP-100,2013-07-01 03:05:00,
2013-06-30 23:10:00,61.1,-23.0,29.79,SSE,157,4.0,7.0,0,0.00,,,0.00,Rainwise IP-100,2013-07-01 03:10:00,
2013-06-30 23:15:00,61.1,-23.0,29.79,SE,135,3.0,6.0,0,0.00,,,0.00,Rainwise IP-100,2013-07-01 03:15:00,
2013-06-30 23:20:00,61.1,-23.0,29.79,ESE,112,3.0,7.0,0,0.00,,,0.00,Rainwise IP-100,2013-07-01 03:20:00,
2013-06-30 23:25:00,61.2,-23.0,29.78,ESE,112,5.0,7.0,0,0.00,,,0.00,Rainwise IP-100,2013-07-01 03:25:00,
2013-06-30 23:30:00,61.2,-23.0,29.78,SSE,157,6.0,8.0,0,0.00,,,0.00,Rainwise IP-100,2013-07-01 03:30:00,
2013-06-30 23:35:00,61.3,-23.0,29.78,SSE,157,2.0,11.0,0,0.00,,,0.00,Rainwise IP-100,2013-07-01 03:35:00,
2013-06-30 23:40:00,61.4,-23.0,29.78,ESE,112,2.0,7.0,0,0.00,,,0.00,Rainwise IP-100,2013-07-01 03:40:00,
2013-06-30 23:45:00,61.5,-23.0,29.78,South,180,1.0,7.0,0,0.00,,,0.00,Rainwise IP-100,2013-07-01 03:45:00,
2013-06-30 23:50:00,61.6,-23.0,29.78,SE,135,2.0,9.0,0,0.00,,,0.00,Rainwise IP-100,2013-07-01 03:50:00,
2013-06-30 23:55:00,61.6,-23.0,29.78,SE,135,6.0,6.0,0,0.00,,,0.00,Rainwise IP-100,2013-07-01 03:55:00,